[[{"header":{"parameterUnit":"m.s-1","parameterCategory":1,"la1":30.2991,"la2":30.254,"lo1":-89.0895,"lo2":-89.0444,"dy":0.0017,"dx":0.0017,"nx":28,"ny":28,"refTime":"2025-06-01T21:00:00:Z","depth":0,"parameterNumber":2,"parameterNumberName":"U-component_of_WINDS"},"data":[0,0,0,0,0,0,0,0,0,0,0,0,0,0,0,0,0,0,0,0,0,0,0,0,0,0,0,0,0,0,0,0,0,0,0,0,0,0,0,0,0,0,0,0,0,0,0,0,0,0,0,0,0,0,0,0,0,0,-2.2514,-2.2514,0,-2.2531,-2.2531,-2.2531,-2.2487,-2.2485,-2.2484,-2.2482,-2.2501,-2.2503,-2.2505,0,0,0,0,0,0,0,0,0,0,0,0,0,-2.2444,-2.2445,-2.2514,-2.2514,-2.2514,-2.2531,-2.2531,-2.2531,-2.2487,-2.2485,-2.2483,-2.2482,-2.25,-2.2503,-2.2505,0,0,0,0,0,0,0,0,0,0,0,0,0,-2.2469,-2.2446,-2.2514,-2.2494,-2.2492,-2.2531,-2.2531,-2.2531,-2.2487,-2.2485,-2.2483,-2.2481,-2.25,-2.2502,-2.2505,-2.2564,0,0,-2.2513,-2.2514,0,0,0,0,0,0,0,0,-2.2468,-2.2472,-2.2497,-2.2495,-2.2494,-2.2504,-2.2513,-2.2542,-2.2488,-2.2489,-2.2482,-2.248,-2.2504,-2.2506,-2.2514,-2.2565,-2.2566,-2.2514,-2.2515,-2.2516,-2.2517,0,0,0,0,0,0,0,-2.2466,-2.2471,-2.2521,-2.2497,-2.2495,-2.2485,-2.2486,-2.2519,-2.2508,-2.2489,-2.2486,-2.2488,-2.2503,-2.2512,-2.2514,-2.2566,-2.2513,-2.2516,-2.2518,-2.2519,-2.2666,-2.2668,0,0,0,0,0,0,-2.2467,-2.2469,-2.252,-2.2521,-2.2475,-2.2488,-2.2489,-2.2503,-2.2508,-2.2506,-2.249,-2.2486,-2.2508,-2.2511,-2.2515,-2.2584,-2.2516,-2.2519,-2.252,-2.2664,-2.2667,-2.2669,0,0,0,0,0,0,-2.2465,-2.2472,-2.2519,-2.2494,-2.25,-2.2491,-2.2507,-2.2505,-2.2513,-2.2509,-2.2507,-2.2501,-2.2506,-2.2511,-2.2552,-2.2584,-2.252,-2.2523,-2.2661,-2.2665,-2.2668,-2.2723,0,0,0,0,0,0,-2.2463,-2.2471,-2.2493,-2.2495,-2.2501,-2.2556,-2.2509,-2.2506,-2.2518,-2.2513,-2.2518,-2.2517,-2.2505,-2.2548,-2.2555,-2.2586,-2.2525,-2.2658,-2.2663,-2.2667,-2.2718,-2.2728,-2.2736,0,0,0,0,0,-2.2461,-2.2508,-2.2495,-2.2501,-2.2528,-2.2558,-2.2562,-2.2547,-2.2521,-2.2543,-2.254,-2.2517,-2.258,-2.2553,-2.256,-2.2593,-2.2656,-2.2661,-2.2666,-2.2714,-2.2726,-2.2736,0,0,0,0,0,0,-2.2511,-2.2508,-2.2493,-2.2542,-2.2551,-2.255,-2.2578,-2.2559,-2.2576,-2.257,-2.2551,-2.2553,-2.2598,-2.2599,-2.257,-2.265,-2.2613,-2.262,-2.2647,-2.2659,-2.2667,-2.2666,-2.2527,0,0,0,0,0,-2.2527,-2.2551,-2.2548,-2.2592,-2.2597,-2.2587,-2.2599,-2.2587,-2.2595,-2.2599,-2.2598,-2.2608,-2.2629,-2.2644,-2.2664,-2.2718,-2.2719,-2.2745,-2.2754,-2.2761,-2.2767,-2.2796,-2.2808,-2.2686,-2.2686,-2.2686,0,0,-2.2562,-2.2563,-2.258,-2.2602,-2.2607,-2.2632,-2.259,-2.2619,-2.2638,-2.2603,-2.2642,-2.2642,-2.2651,-2.27,-2.2721,-2.2702,-2.2801,-2.2768,-2.2773,-2.2776,-2.2803,-2.2814,-2.2825,-2.269,-2.2689,-2.2688,0,0,-2.2638,-2.2641,-2.2678,-2.2684,-2.2692,-2.2686,-2.2695,-2.2697,-2.2696,-2.2735,-2.2709,-2.2732,-2.277,-2.2777,-2.2786,-2.2866,-2.2845,-2.2873,-2.2919,-2.2948,-2.2958,-2.2966,-2.2994,-2.3005,-2.2879,-2.2879,-2.2879,0,-2.268,-2.2717,-2.2699,-2.273,-2.2741,-2.271,-2.2748,-2.2754,-2.2769,-2.2777,-2.2756,-2.2803,-2.2807,-2.2857,-2.2876,-2.2885,-2.2894,-2.2872,-2.2957,-2.2966,-2.2973,-2.3,-2.3011,-2.2882,-2.2882,-2.2881,-2.2881,0,-2.2768,-2.2794,-2.2823,-2.2838,-2.2851,-2.2885,-2.2874,-2.289,-2.2877,-2.2872,-2.2912,-2.2916,-2.2936,-2.2947,-2.2935,-2.2995,-2.2984,-2.2961,-2.2923,-2.2989,-2.3014,-2.3024,-2.2887,-2.2886,-2.2885,-2.2884,0,0,-2.2875,-2.288,-2.2891,-2.2897,-2.2904,-2.2924,-2.2957,-2.2977,-2.2991,-2.3002,-2.303,-2.3063,-2.3041,-2.3051,-2.3039,-2.3065,-2.3128,-2.3038,-2.3038,-2.3055,-2.3195,-2.3213,-2.3225,-2.3114,-2.3116,-2.3118,-2.3194,0,-2.295,-2.3006,-2.2992,-2.3047,-2.3072,-2.3043,-2.3072,-2.308,-2.3077,-2.3097,-2.3094,-2.3118,-2.3088,-2.3094,-2.3117,-2.3115,-2.3156,-2.3109,-2.314,-2.3141,-2.3138,-2.3238,-2.3256,-2.3328,-2.3204,-2.3206,-2.3207,0,-2.3045,-2.306,-2.3118,-2.3121,-2.3131,-2.3157,-2.3173,-2.3193,-2.3202,-2.3198,-2.3209,-2.3193,-2.3226,-2.3188,-2.3234,-2.3202,-2.3214,-2.3215,-2.3217,-2.322,-2.3178,-2.3243,-2.3351,-2.3362,-2.3222,-2.3221,-2.322,0,-2.3118,-2.3152,-2.3191,-2.3197,-2.3202,-2.3221,-2.3224,-2.3231,-2.3243,-2.3258,-2.3266,-2.3285,-2.3295,-2.331,-2.3299,-2.3273,-2.3347,-2.3308,-2.3345,-2.3345,-2.3361,-2.336,-2.3473,-2.3369,-2.3369,-2.3369,-2.3368,0,-2.3203,-2.324,-2.3224,-2.3248,-2.3288,-2.3272,-2.3313,-2.3312,-2.3318,-2.3342,-2.3319,-2.3342,-2.3326,-2.3348,-2.334,-2.3379,-2.3384,-2.3382,-2.3379,-2.3384,-2.3384,-2.3391,-2.3386,-2.3372,-2.3371,-2.337,-2.337,0,-2.3291,-2.3282,-2.3323,-2.3324,-2.3325,-2.3355,-2.3356,-2.3379,-2.3374,-2.3405,-2.3411,-2.3404,-2.3428,-2.3419,-2.3445,-2.344,-2.349,-2.348,-2.3487,-2.3484,-2.3521,-2.3518,-2.3642,-2.3658,-2.3544,-2.3545,-2.3546,0,-2.3346,-2.3374,-2.3378,-2.3392,-2.3396,-2.342,-2.3432,-2.3417,-2.3432,-2.3443,-2.3465,-2.3487,-2.3505,-2.3545,-2.3543,-2.3563,-2.3554,-2.3596,-2.3557,-2.3561,-2.3555,-2.3554,-2.3556,-2.3604,-2.3606,-2.3607,-2.3608,0,-2.3445,-2.3439,-2.3458,-2.3476,-2.3491,-2.3505,-2.3516,-2.3529,-2.3515,-2.3532,-2.3557,-2.357,-2.3597,-2.362,-2.3638,-2.3641,-2.3622,-2.362,-2.3629,-2.3635,-2.3637,-2.3637,-2.3508,-2.3617,-2.3616,-2.3615,-2.3615,-2.3615,-2.3518,-2.3542,-2.3548,-2.357,-2.3577,-2.3588,-2.3609,-2.3607,-2.3627,-2.3648,-2.3638,-2.3666,-2.3675,-2.3697,-2.3703,-2.3726,-2.3709,-2.3723,-2.3726,-2.373,-2.3735,-2.3634,-2.3729,-2.3729,-2.3728,-2.3728,-2.3728,0,-2.3616,-2.3619,-2.3639,-2.3656,-2.3673,-2.3653,-2.3665,-2.3681,-2.3706,-2.3715,-2.3733,-2.3761,-2.3783,-2.3783,-2.3803,-2.3822,-2.3814,-2.3828,-2.3826,-2.3827,-2.3748,-2.3738,-2.3834,-2.3834,-2.3834,-2.3834,-2.3834,-2.3834,-2.3669,-2.3707,-2.3702,-2.3744,-2.3746,-2.3774,-2.3782,-2.3793,-2.38,-2.3833,-2.3851,-2.385,-2.3855,-2.3876,-2.3896,-2.3895,-2.3904,-2.3921,-2.3917,-2.3843,-2.3833,-2.3823,-2.3813,-2.3923,-2.3923,-2.3994,-2.3995,-2.3995]},{"header":{"parameterUnit":"m.s-1","parameterCategory":1,"la1":30.2991,"la2":30.254,"lo1":-89.0895,"lo2":-89.0444,"dy":0.0017,"dx":0.0017,"nx":28,"ny":28,"refTime":"2025-06-01T21:00:00:Z","depth":0,"parameterNumber":3,"parameterNumberName":"V-component_of_WINDS"},"data":[0,0,0,0,0,0,0,0,0,0,0,0,0,0,0,0,0,0,0,0,0,0,0,0,0,0,0,0,0,0,0,0,0,0,0,0,0,0,0,0,0,0,0,0,0,0,0,0,0,0,0,0,0,0,0,0,0,0,4.1409,4.1409,0,4.1412,4.1412,4.1412,4.137,4.1368,4.1367,4.1366,4.1368,4.1369,4.137,0,0,0,0,0,0,0,0,0,0,0,0,0,4.1366,4.1367,4.1409,4.1409,4.141,4.1412,4.1412,4.1412,4.137,4.1368,4.1367,4.1366,4.1368,4.1369,4.1371,0,0,0,0,0,0,0,0,0,0,0,0,0,4.1379,4.1368,4.1409,4.1389,4.1387,4.1412,4.1412,4.1412,4.137,4.1368,4.1367,4.1365,4.1367,4.1369,4.1371,4.1416,0,0,4.1376,4.1377,0,0,0,0,0,0,0,0,4.1378,4.138,4.1392,4.139,4.1388,4.1389,4.1398,4.1414,4.137,4.1376,4.1366,4.1364,4.1376,4.1377,4.1382,4.1416,4.1416,4.1376,4.1377,4.1378,4.1378,0,0,0,0,0,0,0,4.1377,4.138,4.1411,4.1392,4.139,4.1379,4.1379,4.1401,4.1386,4.1376,4.1373,4.1374,4.1375,4.138,4.1381,4.1416,4.1376,4.1378,4.1379,4.1379,4.1488,4.149,0,0,0,0,0,0,4.1379,4.1379,4.141,4.1411,4.1379,4.1381,4.1381,4.139,4.1386,4.1383,4.1375,4.1372,4.1378,4.1379,4.1381,4.1433,4.1378,4.1379,4.138,4.1486,4.1488,4.149,0,0,0,0,0,0,4.1379,4.1382,4.141,4.1394,4.1397,4.1384,4.1395,4.1391,4.1396,4.1385,4.1382,4.1383,4.1377,4.1379,4.1408,4.1433,4.138,4.1382,4.1484,4.1487,4.1489,4.1539,0,0,0,0,0,0,4.1377,4.1382,4.14,4.1395,4.1398,4.1437,4.1396,4.1393,4.1399,4.1395,4.1392,4.139,4.1375,4.1405,4.1409,4.1434,4.1383,4.1481,4.1485,4.1488,4.1535,4.1543,4.155,0,0,0,0,0,4.1376,4.1413,4.1401,4.1405,4.1419,4.1439,4.144,4.1424,4.1402,4.1419,4.1412,4.139,4.143,4.1409,4.1413,4.1439,4.148,4.1484,4.1488,4.1531,4.1541,4.155,0,0,0,0,0,0,4.1421,4.1412,4.1398,4.1435,4.1438,4.1431,4.1452,4.1435,4.1443,4.1439,4.1417,4.1417,4.1449,4.1447,4.1424,4.1482,4.1451,4.1456,4.1482,4.1492,4.1499,4.1498,4.1384,0,0,0,0,0,4.1435,4.1452,4.1443,4.1477,4.1479,4.1466,4.1473,4.146,4.1462,4.1463,4.1458,4.1461,4.1474,4.1483,4.1494,4.1535,4.1533,4.1554,4.1562,4.1568,4.1573,4.1593,4.1603,4.1504,4.1504,4.1504,0,0,4.1465,4.1462,4.1474,4.1486,4.1486,4.1504,4.1467,4.1487,4.1499,4.1466,4.1493,4.149,4.1491,4.1526,4.1541,4.1525,4.16,4.1574,4.1579,4.158,4.1599,4.1608,4.1616,4.1507,4.1506,4.1506,0,0,4.1527,4.1527,4.1555,4.1556,4.1558,4.1549,4.1556,4.1552,4.1548,4.1575,4.155,4.1565,4.1588,4.159,4.1594,4.1658,4.1638,4.1662,4.1701,4.1722,4.1729,4.1736,4.1758,4.1766,4.1667,4.1667,4.1667,0,4.1563,4.1589,4.1571,4.1593,4.1599,4.157,4.1597,4.16,4.1605,4.1609,4.1592,4.162,4.1619,4.1654,4.1669,4.1674,4.168,4.1662,4.173,4.1736,4.1742,4.1763,4.1772,4.167,4.167,4.1669,4.1669,0,4.1633,4.1651,4.1673,4.1679,4.1688,4.1713,4.1698,4.1709,4.1695,4.1688,4.1716,4.1713,4.1724,4.1731,4.1718,4.1764,4.1754,4.1734,4.1701,4.1755,4.1774,4.1782,4.1674,4.1673,4.1672,4.1671,0,0,4.1723,4.1719,4.1728,4.173,4.173,4.1743,4.1767,4.1777,4.1786,4.1791,4.181,4.183,4.1811,4.1816,4.1803,4.1821,4.1871,4.1798,4.1798,4.1811,4.1921,4.1935,4.1945,4.1858,4.186,4.1861,4.192,0,4.1783,4.1823,4.1808,4.1848,4.1864,4.1838,4.1858,4.186,4.1854,4.1867,4.186,4.1875,4.1849,4.1851,4.1868,4.1861,4.1893,4.1857,4.1875,4.1875,4.1874,4.1955,4.1971,4.2027,4.1928,4.1929,4.193,0,4.1858,4.1866,4.1909,4.1906,4.1912,4.193,4.1939,4.1951,4.1953,4.1947,4.1953,4.1936,4.1958,4.1927,4.1957,4.1934,4.194,4.1938,4.194,4.194,4.1905,4.1957,4.2044,4.2053,4.1942,4.1941,4.194,0,4.1918,4.194,4.1968,4.1971,4.1968,4.1982,4.1981,4.1981,4.1989,4.1996,4.2,4.2011,4.2016,4.2024,4.201,4.1989,4.2042,4.201,4.2037,4.2038,4.2049,4.2048,4.2138,4.2055,4.2055,4.2054,4.2054,0,4.1986,4.2013,4.1995,4.2012,4.2041,4.2024,4.2053,4.205,4.205,4.2066,4.2043,4.2059,4.204,4.2053,4.2043,4.2069,4.2072,4.2067,4.2064,4.2069,4.2069,4.2072,4.2067,4.2057,4.2056,4.2056,4.2055,0,4.2058,4.2047,4.2076,4.2071,4.2071,4.2092,4.2088,4.2104,4.2097,4.2117,4.212,4.2109,4.2124,4.2111,4.2125,4.2118,4.2153,4.2144,4.2152,4.2149,4.2177,4.2174,4.2271,4.2283,4.2193,4.2194,4.2195,0,4.2102,4.2122,4.212,4.2129,4.213,4.2145,4.2152,4.2136,4.2144,4.2148,4.2163,4.2176,4.2185,4.221,4.2202,4.2213,4.2204,4.2237,4.2205,4.221,4.2203,4.2202,4.2204,4.2243,4.2244,4.2245,4.2246,0,4.218,4.2174,4.2185,4.2195,4.2205,4.2212,4.2217,4.2226,4.2209,4.222,4.2235,4.2242,4.2256,4.2269,4.2278,4.2277,4.2259,4.2256,4.2263,4.2268,4.2271,4.2269,4.2169,4.2254,4.2253,4.2253,4.2252,4.2252,4.2238,4.2255,4.2256,4.2269,4.2272,4.2277,4.2291,4.2286,4.2298,4.2309,4.2299,4.2317,4.2318,4.2327,4.2329,4.2342,4.2328,4.2338,4.2341,4.2343,4.2347,4.227,4.2344,4.2344,4.2343,4.2343,4.2343,0,4.2315,4.2314,4.2327,4.2335,4.2346,4.2329,4.2334,4.2344,4.236,4.2363,4.2372,4.2389,4.2402,4.2396,4.2407,4.2418,4.241,4.2422,4.242,4.242,4.2359,4.2352,4.2428,4.2428,4.2428,4.2428,4.2428,4.2428,4.2356,4.2382,4.2376,4.2404,4.2403,4.242,4.2424,4.2429,4.2431,4.2451,4.2462,4.2458,4.2457,4.2468,4.2478,4.2476,4.2481,4.2495,4.249,4.2433,4.2424,4.2416,4.2409,4.2497,4.2497,4.255,4.255,4.2551]}]]